[[{"header":{"parameterUnit":"m.s-1","parameterCategory":1,"la1":30.2991,"la2":30.254,"lo1":-89.0895,"lo2":-89.0444,"dy":0.0017,"dx":0.0017,"nx":28,"ny":28,"refTime":"2025-08-15T21:00:00:Z","depth":0,"parameterNumber":2,"parameterNumberName":"U-component_of_WINDS"},"data":[0,0,0,0,0,0,0,0,0,0,0,0,0,0,0,0,0,0,0,0,0,0,0,0,0,0,0,0,0,0,0,0,0,0,0,0,0,0,0,0,0,0,0,0,0,0,0,0,0,0,0,0,0,0,0,0,0,0,3.2886,3.2895,0,3.3658,3.3667,3.3675,3.3961,3.3959,3.3957,3.3954,3.4713,3.4734,3.4757,0,0,0,0,0,0,0,0,0,0,0,0,0,3.1632,3.1653,3.2885,3.2895,3.2905,3.3656,3.3667,3.3677,3.3962,3.3959,3.3956,3.3953,3.4705,3.4732,3.4759,0,0,0,0,0,0,0,0,0,0,0,0,0,3.2266,3.166,3.2884,3.3138,3.3169,3.3654,3.3667,3.368,3.3962,3.3959,3.3955,3.3952,3.4696,3.4729,3.4762,3.5042,0,0,3.4865,3.488,0,0,0,0,0,0,0,0,3.2229,3.2311,3.3091,3.3122,3.3157,3.3711,3.3503,3.4136,3.3963,3.366,3.3954,3.395,3.438,3.4439,3.4591,3.5077,3.511,3.4868,3.4888,3.4903,3.4912,0,0,0,0,0,0,0,3.2185,3.228,3.319,3.3102,3.3142,3.3205,3.3291,3.3624,3.4029,3.3686,3.3709,3.3798,3.4397,3.4558,3.4611,3.5121,3.4867,3.4897,3.4918,3.4931,3.5878,3.5882,0,0,0,0,0,0,3.2103,3.2241,3.3166,3.3213,3.2676,3.3231,3.3327,3.3536,3.4027,3.4099,3.38,3.3809,3.4502,3.4571,3.4638,3.5002,3.4903,3.4934,3.4953,3.5873,3.5879,3.5884,0,0,0,0,0,0,3.2075,3.2183,3.3135,3.2735,3.2861,3.3256,3.3488,3.3553,3.3715,3.4114,3.4184,3.3893,3.4502,3.4591,3.4943,3.5032,3.4949,3.498,3.5867,3.5874,3.5881,3.5726,0,0,0,0,0,0,3.2038,3.2171,3.2287,3.2735,3.2881,3.3433,3.3494,3.357,3.3776,3.3794,3.4219,3.4285,3.4506,3.4891,3.4976,3.5076,3.5006,3.586,3.587,3.5879,3.5725,3.5727,3.573,0,0,0,0,0,3.1992,3.2205,3.2292,3.2402,3.3036,3.3438,3.352,3.3779,3.3782,3.3898,3.4155,3.4272,3.5008,3.4924,3.5022,3.5134,3.5856,3.5867,3.5878,3.5724,3.5727,3.5729,0,0,0,0,0,0,3.1744,3.2268,3.237,3.2736,3.3042,3.3486,3.3641,3.3773,3.4076,3.4079,3.4377,3.4471,3.4798,3.5001,3.4898,3.5432,3.5439,3.547,3.5288,3.5294,3.5296,3.524,3.5034,0,0,0,0,0,3.1734,3.2027,3.2465,3.2744,3.2894,3.3241,3.3425,3.36,3.3923,3.4051,3.4333,3.4635,3.4935,3.5125,3.5423,3.5756,3.5851,3.5881,3.5882,3.5883,3.5905,3.6098,3.6116,3.5921,3.5921,3.592,0,0,3.1712,3.2035,3.2199,3.2703,3.2961,3.325,3.3347,3.3646,3.3862,3.4093,3.4447,3.4663,3.5019,3.5363,3.5529,3.5542,3.5981,3.5897,3.5894,3.5918,3.6111,3.6129,3.6145,3.5928,3.5927,3.5926,0,0,3.1821,3.2095,3.2363,3.2622,3.3015,3.3246,3.3308,3.3736,3.3893,3.4255,3.4436,3.4689,3.52,3.5448,3.564,3.5849,3.5967,3.5936,3.5946,3.613,3.6146,3.6161,3.6236,3.6259,3.5957,3.5957,3.5957,0,3.1741,3.2195,3.2478,3.2775,3.299,3.3226,3.3494,3.3727,3.4191,3.4331,3.4342,3.4993,3.5248,3.5655,3.5707,3.5854,3.5931,3.5889,3.6123,3.6141,3.6159,3.6233,3.626,3.5951,3.5952,3.5952,3.5953,0,3.2078,3.2388,3.2554,3.3013,3.3247,3.3524,3.3845,3.4045,3.4199,3.4425,3.4788,3.5105,3.5473,3.5582,3.5729,3.601,3.6007,3.6066,3.608,3.6167,3.6242,3.6272,3.5942,3.5945,3.5946,3.5948,0,0,3.2048,3.2668,3.2724,3.2937,3.3391,3.3632,3.3918,3.4291,3.4457,3.4769,3.5015,3.5444,3.5505,3.5723,3.59,3.6062,3.6209,3.6103,3.6115,3.6112,3.6537,3.649,3.6519,3.629,3.6297,3.6302,3.6507,0,3.2218,3.2758,3.3024,3.3442,3.3732,3.3962,3.4212,3.4512,3.4731,3.5001,3.5238,3.554,3.5597,3.573,3.5901,3.6154,3.6297,3.6143,3.6515,3.6525,3.642,3.6558,3.651,3.6688,3.6538,3.6543,3.6547,0,3.2488,3.2815,3.3265,3.3692,3.3823,3.4045,3.4409,3.4667,3.501,3.5158,3.5405,3.5581,3.5884,3.5876,3.6296,3.6185,3.6352,3.65,3.6513,3.6557,3.6541,3.6605,3.6751,3.6777,3.6596,3.6592,3.6588,0,3.2424,3.2973,3.3318,3.3491,3.3996,3.4147,3.4361,3.4704,3.4911,3.5225,3.5363,3.5702,3.5887,3.6142,3.6402,3.6372,3.6796,3.6809,3.6922,3.6915,3.7,3.6991,3.7174,3.7106,3.7105,3.7105,3.7104,0,3.2586,3.2852,3.3297,3.3507,3.3812,3.4112,3.4402,3.4632,3.4936,3.5189,3.5402,3.5633,3.5963,3.6232,3.6435,3.6752,3.6832,3.6955,3.7006,3.6938,3.6922,3.7051,3.7045,3.7112,3.7111,3.7109,3.7108,0,3.2564,3.2873,3.3263,3.3714,3.3833,3.4037,3.4418,3.4627,3.4859,3.5177,3.5268,3.5628,3.5958,3.6244,3.6672,3.681,3.7135,3.7196,3.7023,3.7051,3.7148,3.7135,3.742,3.7472,3.7366,3.7367,3.7367,0,3.2648,3.2862,3.3339,3.3532,3.3748,3.4051,3.4269,3.4571,3.4786,3.5197,3.5354,3.5702,3.5997,3.6509,3.6803,3.7133,3.7204,3.7281,3.7253,3.7179,3.7206,3.719,3.7212,3.7279,3.7279,3.7279,3.7279,0,3.2764,3.2909,3.3221,3.3588,3.3845,3.4144,3.4448,3.4589,3.4946,3.5176,3.5523,3.5752,3.6199,3.6539,3.6903,3.7113,3.7253,3.7286,3.733,3.7262,3.7153,3.7215,3.7024,3.7278,3.7278,3.7278,3.7278,3.7278,3.28,3.3002,3.3373,3.3713,3.3978,3.4259,3.448,3.4745,3.5044,3.544,3.5597,3.5949,3.6286,3.6793,3.7003,3.7277,3.7299,3.7361,3.7378,3.7388,3.7378,3.7111,3.7343,3.7343,3.7344,3.7344,3.7344,0,3.2928,3.3181,3.3492,3.3919,3.4185,3.4309,3.4653,3.4864,3.5177,3.5486,3.5776,3.6173,3.6505,3.6828,3.7175,3.7331,3.7404,3.7412,3.7403,3.7449,3.7338,3.7266,3.7347,3.7347,3.7347,3.7347,3.7347,3.7347,3.3027,3.3378,3.3566,3.4047,3.4296,3.4654,3.484,3.5098,3.5348,3.5787,3.607,3.6283,3.6596,3.6969,3.7277,3.7362,3.7479,3.7469,3.7571,3.746,3.7456,3.7452,3.7387,3.7492,3.7492,3.7661,3.7662,3.7663]},{"header":{"parameterUnit":"m.s-1","parameterCategory":1,"la1":30.2991,"la2":30.254,"lo1":-89.0895,"lo2":-89.0444,"dy":0.0017,"dx":0.0017,"nx":28,"ny":28,"refTime":"2025-08-15T21:00:00:Z","depth":0,"parameterNumber":3,"parameterNumberName":"V-component_of_WINDS"},"data":[0,0,0,0,0,0,0,0,0,0,0,0,0,0,0,0,0,0,0,0,0,0,0,0,0,0,0,0,0,0,0,0,0,0,0,0,0,0,0,0,0,0,0,0,0,0,0,0,0,0,0,0,0,0,0,0,0,0,1.0994,1.0993,0,1.0886,1.0885,1.0884,1.0979,1.0983,1.0987,1.099,1.0868,1.0862,1.0855,0,0,0,0,0,0,0,0,0,0,0,0,0,1.1273,1.1267,1.0994,1.0993,1.0991,1.0887,1.0885,1.0884,1.0978,1.0983,1.0988,1.0992,1.0871,1.0862,1.0854,0,0,0,0,0,0,0,0,0,0,0,0,0,1.1157,1.1265,1.0994,1.1026,1.1028,1.0887,1.0885,1.0883,1.0977,1.0983,1.0989,1.0994,1.0873,1.0863,1.0853,1.0671,0,0,1.0821,1.0817,0,0,0,0,0,0,0,0,1.1163,1.1146,1.1023,1.1024,1.1025,1.0953,1.0939,1.0812,1.0976,1.0996,1.0991,1.0997,1.0891,1.0879,1.0846,1.0666,1.066,1.082,1.0814,1.081,1.0807,0,0,0,0,0,0,0,1.1171,1.1151,1.0951,1.1021,1.1022,1.1043,1.1033,1.0915,1.0911,1.0995,1.1001,1.0988,1.0893,1.0856,1.0844,1.0659,1.0821,1.0812,1.0805,1.0801,1.0324,1.0318,0,0,0,0,0,0,1.1177,1.1158,1.0954,1.0948,1.1111,1.1033,1.1022,1.097,1.0913,1.091,1.0983,1.0993,1.087,1.0856,1.084,1.0621,1.081,1.08,1.0794,1.0331,1.0323,1.0316,0,0,0,0,0,0,1.1183,1.1158,1.0959,1.1055,1.1031,1.1023,1.0962,1.0964,1.0928,1.0904,1.0903,1.0946,1.0874,1.0854,1.0713,1.0618,1.0795,1.0786,1.0338,1.0328,1.032,1.0183,0,0,0,0,0,0,1.119,1.116,1.1091,1.1053,1.1026,1.0835,1.0957,1.0958,1.0911,1.0923,1.087,1.0866,1.0878,1.0728,1.0703,1.0607,1.0778,1.0347,1.0334,1.0323,1.0196,1.017,1.0148,0,0,0,0,0,1.12,1.1055,1.1088,1.1062,1.0941,1.083,1.0814,1.0833,1.0903,1.0833,1.0819,1.0868,1.0635,1.0713,1.0685,1.0585,1.0352,1.0338,1.0324,1.0207,1.0175,1.0149,0,0,0,0,0,0,1.1076,1.105,1.1086,1.0924,1.088,1.0846,1.0758,1.0799,1.073,1.0743,1.0768,1.0755,1.0605,1.0583,1.067,1.0407,1.0505,1.0484,1.0425,1.0395,1.0372,1.0376,1.0769,0,0,0,0,0,1.1032,1.0948,1.0928,1.0787,1.0763,1.0765,1.0717,1.0737,1.069,1.0669,1.0645,1.0594,1.051,1.0453,1.0374,1.0197,1.0185,1.0115,1.0091,1.0072,1.005,0.9954,0.9921,1.0268,1.0269,1.0269,0,0,1.0935,1.0911,1.0854,1.0762,1.0729,1.0637,1.0747,1.0646,1.0577,1.0653,1.0518,1.0499,1.0445,1.0285,1.0213,1.026,0.9954,1.0053,1.0038,1.0026,0.9935,0.9902,0.9873,1.0259,1.026,1.0262,0,0,1.0712,1.0687,1.0566,1.0534,1.0485,1.0489,1.046,1.0423,1.0414,1.0281,1.0336,1.0256,1.011,1.0068,1.0028,0.9798,0.9839,0.9772,0.9642,0.9548,0.9521,0.9496,0.941,0.9379,0.9753,0.9753,0.9753,0,1.0595,1.0463,1.0498,1.0393,1.0349,1.0422,1.0298,1.0264,1.019,1.0157,1.0215,1.0036,1.0004,0.9835,0.9779,0.9746,0.9711,0.9773,0.9523,0.9499,0.9477,0.9394,0.9362,0.9745,0.9745,0.9746,0.9747,0,1.0321,1.023,1.0138,1.007,1.0018,0.9903,0.9918,0.9861,0.9889,0.9886,0.9749,0.9716,0.9632,0.9596,0.9619,0.943,0.9461,0.9521,0.9617,0.9435,0.9357,0.9326,0.9733,0.9736,0.9738,0.974,0,0,1.0005,0.9965,0.993,0.99,0.9857,0.9784,0.9676,0.9599,0.9547,0.9497,0.9402,0.9282,0.9339,0.9293,0.9315,0.9233,0.9049,0.9303,0.9302,0.9251,0.8835,0.8784,0.8747,0.9081,0.9075,0.9071,0.8837,0,0.9775,0.9587,0.9618,0.9435,0.9349,0.9421,0.9326,0.9288,0.9284,0.9209,0.9206,0.9118,0.9202,0.9175,0.9099,0.9087,0.8964,0.9106,0.8987,0.8983,0.899,0.8707,0.8652,0.8433,0.8808,0.8803,0.8799,0,0.9478,0.9422,0.9231,0.9204,0.9169,0.9083,0.9016,0.8946,0.8904,0.8908,0.8862,0.8899,0.8789,0.8896,0.8742,0.8838,0.8794,0.8782,0.8774,0.8756,0.8873,0.8675,0.8364,0.8328,0.8753,0.8757,0.876,0,0.9259,0.9137,0.9007,0.8981,0.8947,0.8884,0.8867,0.8833,0.8785,0.8728,0.8697,0.8626,0.8584,0.8528,0.8545,0.8623,0.8386,0.8495,0.8381,0.838,0.8319,0.8321,0.7989,0.8304,0.8305,0.8305,0.8306,0,0.8993,0.8871,0.8908,0.8826,0.8693,0.8733,0.8599,0.859,0.8561,0.8477,0.8539,0.8458,0.8491,0.8413,0.8427,0.8295,0.8277,0.8274,0.8277,0.8263,0.8263,0.8227,0.824,0.8297,0.8299,0.83,0.8302,0,0.8719,0.874,0.8602,0.8586,0.8579,0.8481,0.8465,0.8388,0.8396,0.8289,0.8267,0.8274,0.8187,0.8202,0.8104,0.8113,0.7947,0.7973,0.7961,0.7964,0.7847,0.7855,0.7473,0.7424,0.7778,0.7775,0.7772,0,0.8543,0.8452,0.8429,0.838,0.8359,0.8279,0.8234,0.8272,0.822,0.8171,0.81,0.802,0.7955,0.7812,0.7806,0.7732,0.7752,0.7625,0.774,0.773,0.7742,0.7744,0.7734,0.7597,0.7593,0.759,0.7588,0,0.8226,0.8244,0.8177,0.8114,0.8059,0.8011,0.7968,0.7924,0.7959,0.7899,0.7813,0.7764,0.7668,0.7585,0.7518,0.7498,0.7545,0.7554,0.7522,0.7501,0.7496,0.7492,0.7889,0.7559,0.7562,0.7564,0.7565,0.7566,0.7991,0.7914,0.7886,0.7811,0.7785,0.7745,0.7673,0.7674,0.7604,0.753,0.7559,0.7459,0.7425,0.7341,0.7315,0.7236,0.7283,0.7238,0.7225,0.7212,0.7195,0.7517,0.7225,0.7226,0.7227,0.7227,0.7228,0,0.7671,0.766,0.7591,0.7532,0.7473,0.7535,0.7493,0.7437,0.735,0.7317,0.7256,0.7158,0.7081,0.7074,0.7001,0.6939,0.696,0.6918,0.6918,0.6912,0.716,0.7191,0.6903,0.6903,0.6903,0.6903,0.6903,0.6903,0.7497,0.7369,0.7384,0.7245,0.7235,0.7141,0.7111,0.7075,0.7049,0.6938,0.6876,0.6875,0.6852,0.6779,0.6711,0.6712,0.6678,0.6626,0.6634,0.6863,0.6895,0.6925,0.6955,0.6621,0.6621,0.6392,0.639,0.6388]}]]